Location: Observatory
(52.1446°N, 0.4624°W)
Time: 18:38:44
(UTC+00:00)

ISS - Pass Details

Date: 26 November 2021
Orbit: 417 x 422 km, 51.6° (Epoch: 06 December)

Event Time Altitude Azimuth Distance (km) Brightness Sun altitude
Rises 18:24:01 0° 263° (W) 2,376 1.6 -21.7°
Reaches altitude 10° 18:26:07 10° 262° (W) 1,512 0.2 -22.1°
Enters shadow 18:28:53 57° 253° (WSW) 507 -3.1 -22.5°
